Beaufort, NC

9:12 AM EST on February 25, 2017 (GMT -0500)
Smith

Weather History for KMRH - August, 2013

Change the Weather History Date:

Wednesday, August 28, 2013

  Actual Average Record
Temperature  
Mean Temperature 78 °F -  
Max Temperature 84 °F 86 °F 94 °F (1978)
Min Temperature 75 °F 70 °F 61 °F (1984)
Cooling Degree Days 14    
Growing Degree Days 28 (Base 50)    
Moisture  
Dew Point 73 °F    
Average Humidity 82    
Maximum Humidity 90    
Minimum Humidity 74    
Precipitation  
Precipitation 0.00 in - - ()
Sea Level Pressure  
Sea Level Pressure 29.96 in    
Wind  
Wind Speed 11 mph (SW)    
Max Wind Speed 17 mph    
Max Gust Speed -    
Visibility 9 miles    
Events Rain    
Averages and records for this station are not official NWS values.
T = Trace of Precipitation, MM = Missing Value Source: NWS Daily Summary

Daily Weather History Graph

Daily Weather History Graph

Search for Another Location

Airport or City:

Trip Planner

Search our weather history database for the weather conditions in past years. The results will help you decide how hot, cold, wet, or windy it might be!

Date:

Astronomy

Aug. 28, 2013 Rise Set
Actual Time 6:36 AM EDT 7:38 PM EDT
Civil Twilight 6:10 AM EDT 8:03 PM EDT
Nautical Twilight 5:40 AM EDT 8:34 PM EDT
Astronomical Twilight 5:08 AM EDT 9:06 PM EDT
Moon No Moon Rise 2:07 PM EDT (8/28)
Length of Visible Light 13h 53m
Length of Day
13h 01m
Waning Gibbous, 47% of the Moon is Illuminated
Aug 28
Waning Gibbous
Sep 5
New
Sep 12
First Quarter
Sep 19
Full
Sep 26
Last Quarter

Hourly Weather History & Observations

Time (EDT) Temp. Heat Index Dew Point Humidity Pressure Visibility Wind Dir Wind Speed Gust Speed Precip Events Conditions
12:58 AM 77.0 °F - 68.0 °F 74% 30.01 in 10.0 mi WSW 9.2 mph - N/A   Clear
1:58 AM 77.0 °F - 69.1 °F 76% 29.99 in 10.0 mi WSW 11.5 mph - N/A   Clear
2:58 AM 77.0 °F - 69.1 °F 76% 29.99 in 10.0 mi WSW 10.4 mph - N/A   Clear
3:58 AM 75.9 °F - 69.1 °F 79% 29.97 in 10.0 mi WSW 9.2 mph - N/A   Scattered Clouds
4:58 AM 75.9 °F - 70.0 °F 82% 29.97 in 10.0 mi WSW 8.1 mph - N/A   Clear
5:58 AM 75.9 °F - 69.1 °F 79% 29.97 in 10.0 mi WSW 9.2 mph - N/A   Clear
6:58 AM 75.9 °F - 70.0 °F 82% 29.98 in 10.0 mi SW 8.1 mph - N/A   Clear
7:58 AM 77.0 °F - 71.1 °F 82% 29.98 in 10.0 mi WSW 8.1 mph - N/A   Clear
8:58 AM 79.0 °F - 71.1 °F 77% 29.99 in 10.0 mi SW 12.7 mph - N/A   Clear
9:58 AM 80.1 °F 83.8 °F 72.0 °F 76% 29.99 in 10.0 mi SW 13.8 mph - N/A   Clear
10:58 AM 80.1 °F 83.8 °F 72.0 °F 76% 29.99 in 10.0 mi SW 11.5 mph - N/A   Clear
11:58 AM 81.0 °F 85.2 °F 72.0 °F 74% 29.99 in 10.0 mi SW 13.8 mph - N/A   Partly Cloudy
12:58 PM 82.0 °F 87.9 °F 73.9 °F 76% 29.98 in 9.0 mi SW 13.8 mph - N/A   Clear
1:58 PM 82.0 °F 87.9 °F 73.9 °F 76% 29.97 in 8.0 mi SW 13.8 mph - N/A   Clear
2:58 PM 82.0 °F 88.6 °F 75.0 °F 79% 29.95 in 9.0 mi SW 17.3 mph - N/A   Clear
3:58 PM 81.0 °F 87.3 °F 75.9 °F 85% 29.94 in 8.0 mi SW 16.1 mph - N/A   Clear
4:58 PM 80.1 °F 85.4 °F 75.9 °F 87% 29.93 in 8.0 mi WSW 13.8 mph - N/A   Clear
5:58 PM 80.1 °F 85.4 °F 75.9 °F 87% 29.93 in 7.0 mi WSW 10.4 mph - N/A   Clear
6:58 PM 79.0 °F - 75.9 °F 90% 29.92 in 7.0 mi SW 10.4 mph - 0.00 in Rain Light Rain
7:58 PM 79.0 °F - 75.9 °F 90% 29.93 in 8.0 mi WSW 8.1 mph - 0.00 in   Clear
8:58 PM 79.0 °F - 75.0 °F 88% 29.93 in 8.0 mi WSW 8.1 mph - N/A   Clear
9:58 PM 79.0 °F - 75.9 °F 90% 29.92 in 8.0 mi SW 9.2 mph - N/A   Mostly Cloudy
10:58 PM 79.0 °F - 75.9 °F 90% 29.91 in 7.0 mi WSW 12.7 mph - N/A   Mostly Cloudy
11:58 PM 79.0 °F - 75.0 °F 88% 29.91 in 8.0 mi SW 11.5 mph - N/A   Mostly Cloudy